Regional Weather Roundup
Issued by NWS Newport/Morehead, NC

Current Version | Previous Version | Text Only | Print | Product List | Glossary On
Versions: 1 2 3 4 5 6 7 8 9 10 11 12 13 14 15 16 17 18 19 20 21 22 23 24 25 26 27 28 29 30 31 32 33 34 35 36 37 38 39 40 41 42 43 44 45 46 47 48 49 50
000 ASUS42 KMHX 281113 RWRMHX WEATHER ROUNDUP FOR EASTERN NORTH CAROLINA NATIONAL WEATHER SERVICE NEWPORT/MOREHEAD CITY NC 700 AM EDT SUN AUG 28 2016 NOTE: "FAIR" INDICATES FEW OR NO CLOUDS BELOW 12,000 FEET WITH NO SIGNIFICANT WEATHER AND/OR OBSTRUCTIONS TO VISIBILITY NCZ015>017-031-032-045>047-102-103-281200- NORTH COAST CITY SKY/WX TMP DP RH WIND PRES REMARKS EDENTON FOG N/A N/A N/A N6 30.15R VSB 1 ELIZABETH CITY PTCLDY 77 75 93 N7 30.14R KITTY HAWK MOSUNNY 78 78 100 NE3 30.12R MANTEO CLEAR 78 77 96 NE7 30.13R $$ NCZ045>047-081-094-103-104-281200- CENTRAL COAST CITY SKY/WX TMP DP RH WIND PRES REMARKS FRISCO CLOUDY 79 75 87 E3 30.10R $$ NCZ095-097-098-100-101-281200- SOUTHERN COAST CITY SKY/WX TMP DP RH WIND PRES REMARKS BEAUFORT PTCLDY 78 75 90 N8 30.10R CEDAR ISLAND NOT AVBL JACKSONVILLE CLOUDY 76 74 93 N8 30.11R PINEY ISLAND NOT AVBL WILMINGTON CLOUDY 76 75 97 N8 30.10S $$ NCZ011>013-027>030-043-044-078>080-089-090>093-098-281200- COASTAL PLAIN CITY SKY/WX TMP DP RH WIND PRES REMARKS AHOSKIE CLOUDY 70 69 98 CALM 30.17R FOG CLINTON PTCLDY 74 74 100 CALM 30.14R FOG ELIZABETHTOWN CLOUDY 75 75 100 CALM 30.12S FOG GOLDSBORO CLOUDY 74 74 100 NE5 30.13R GREENVILLE CLOUDY 73 73 100 NE8 30.17R HAVELOCK CLEAR 78 74 87 N9 30.12S KENANSVILLE CLOUDY 73 73 100 N9 30.14R FOG KINSTON FOG 73 73 100 N5 30.15R VSB 3/4 NEW BERN CLOUDY 76 74 93 N5 30.14R FOG RICHLANDS FOG 75 74 96 N7 30.13R VSB 1/4 ROCKY MOUNT CLOUDY 72 72 100 CALM 30.16S FOG WASHINGTON CLOUDY 73 73 99 N6 30.15R FOG WHITEVILLE CLEAR 74 73 95 N3 30.11R FOG $$ AMZ130-135-150-152-154-156-158-170-250-252-270-ANZ085-086-088-633-658-670-281200- MARINE OBSERVATIONS STATION/POSITION TIME TEMP WIND PRES WAVE SWELL AIR SEA DIR/SP/G HT/PER HT/PER (UTC) (F) (DEG/KT/KT) (MB) (FT/S) (FT/S) CHESAPEAKE LIGHT NOT AVBL 64 E VA BEACH 1050 81 81 60/ 16/ 17 1019.7 4/ 5 2/ 9 DUCK 1000 80 79 50/ 12/ 12 1019.1 2 E DUCK 1011 79 N/A 4/ 5 OREGON INLET 1000 79 79 50/ 4/ 6 1019.0 13E OREGON INLT 1100 79 N/A 3/ 9 3/ 9 HATTERAS CG 1000 80 83 70/ 3/ 4 1018.7 DIAMOND BUOY 1050 82 84 80/ 4/ 6 1019.2 3/ 8 3/ 8 CAPE LOOKOUT 1100 80 30/ 8/ 10 1018.9 BEAUFORT LAB 1000 78 82 30/ 4/ 5 1018.5 30 SE NEW RVR IN 1008 82 84 60/ 10/ 14 1018.4 30 SE NEW RVR IN 1025 84 N/A 3/ 8 27 SE WRIGHTSVLE 1008 81 84 10/ 10/ 14 1018.6 5 SE WRIGHTSVLE 1008 80 83 40/ 14/ 17 1019.7 225 S CAPE HAT 1050 82 84 60/ 12/ 14 1017.3 4/ 9 3/ 9 41 SE CHARLESTON 1050 83 84 50/ 14/ 16 1017.8 4/ 9 3/ 9 $$

USA.gov is the U.S. government's official web portal to all federal, state and local government web resources and services.